Theta_e
320 313 311 313 314 315 315 316 318 319 320 320 319 317 316 316 320 322 324 326 328 329 330 331 332 332 332 332 332 333 335 335 335 333 330 327 324 321 318 314 313 312 312 312 312 317 322 324 324 324 328 332 332 328 327 323 316 315 312 311 311 311 311 312 313 313 313 313 313 314 314 314 315 315 315 316 316 317 317 317 317 316 316 316 315
318 314 312 313 314 315 315 316 318 319 320 319 319 317 316 316 320 322 324 326 328 329 330 332 333 333 332 332 332 333 334 334 333 331 329 326 322 318 314 311 311 312 316 321 323 326 329 329 328 325 324 327 328 327 326 320 315 314 310 310 311 311 312 312 313 313 313 313 314 314 314 316 317 317 317 318 318 319 319 319 319 319 318 318 317
318 314 312 312 313 314 315 316 318 319 320 319 319 317 316 317 319 322 324 326 328 328 330 332 333 332 332 332 332 332 332 332 332 330 330 327 319 315 311 311 313 316 323 327 329 330 331 331 329 325 324 324 326 327 322 317 315 312 310 311 310 312 312 313 313 313 314 314 315 315 316 317 317 318 318 319 320 320 320 320 320 320 320 320 318
318 313 312 313 313 314 315 317 318 320 320 320 318 317 317 317 319 321 323 326 327 328 330 332 332 332 332 331 331 331 331 332 332 332 331 327 318 314 311 313 318 320 323 325 327 330 330 330 327 326 325 326 326 322 317 316 314 310 310 311 311 313 312 313 313 314 314 315 316 316 317 317 318 318 319 320 320 320 320 320 320 320 320 320 319
318 313 312 312 313 314 315 317 319 320 321 320 318 317 317 318 319 321 323 325 327 328 331 332 332 332 332 331 331 331 332 332 333 333 332 328 319 314 311 314 322 323 324 324 326 329 328 328 327 327 326 324 321 317 316 316 313 310 311 311 312 313 313 313 313 314 315 316 317 317 317 317 317 318 319 320 320 321 320 320 320 320 320 320 320
319 313 312 313 313 314 315 317 319 321 321 320 318 317 318 319 319 321 323 325 326 329 331 332 332 332 332 331 331 331 332 333 333 332 331 328 319 314 312 314 322 325 325 326 326 327 327 326 325 323 321 318 316 315 316 314 311 311 311 312 313 313 313 314 314 315 316 316 316 317 317 317 317 317 318 319 320 320 320 321 320 320 320 321 321
318 313 312 313 313 314 315 318 319 321 321 319 318 318 319 320 321 322 324 325 327 330 331 331 333 333 333 332 332 332 333 333 332 331 329 327 320 314 312 313 321 325 325 326 326 326 325 323 320 317 315 314 315 315 315 312 311 312 313 313 313 313 314 314 314 316 317 317 317 317 317 317 317 317 317 317 319 320 320 320 320 320 320 321 321
318 314 312 313 314 314 316 318 319 320 320 318 317 318 320 321 322 323 325 326 329 330 330 332 333 334 333 333 333 333 333 332 331 330 327 327 323 315 312 314 321 324 324 325 325 324 322 320 316 314 313 314 314 314 313 312 312 314 314 314 313 313 314 314 314 315 317 318 317 317 317 317 317 317 317 316 318 319 320 320 320 320 320 321 321
318 314 312 313 314 314 316 318 319 319 319 318 317 318 320 322 323 325 327 328 329 329 331 333 334 334 334 333 334 333 332 331 329 327 326 328 324 315 313 315 319 321 323 324 324 322 320 317 314 313 313 314 314 313 313 313 315 316 315 314 313 314 314 314 316 316 318 319 319 318 318 318 317 318 317 316 316 317 318 319 320 320 320 320 320
317 313 312 313 314 314 316 317 318 318 318 318 317 318 320 322 325 327 328 328 328 329 332 334 334 333 333 334 333 332 331 329 327 325 325 327 321 314 314 313 314 319 322 323 322 320 317 314 313 314 314 314 314 314 314 314 317 317 315 316 316 315 315 316 318 319 320 321 320 321 320 319 319 321 319 317 316 316 317 318 319 320 320 320 320
316 313 313 313 314 314 315 317 318 318 318 318 317 318 321 324 326 328 328 328 327 330 333 334 334 333 333 333 332 330 328 326 324 322 321 321 315 311 314 312 311 316 321 321 321 318 315 313 314 315 315 315 315 315 315 317 319 318 318 320 321 319 318 320 323 323 323 322 322 323 323 322 323 324 322 320 318 316 317 317 319 320 321 320 320
316 313 313 313 314 314 315 316 317 318 319 319 317 318 321 324 326 327 327 327 327 330 333 334 334 333 333 332 330 328 326 324 320 316 314 312 309 311 313 312 309 313 318 320 319 317 313 313 315 316 317 317 316 317 318 320 321 322 323 325 326 324 323 324 325 326 325 324 324 325 326 326 327 327 326 324 323 322 321 321 321 321 322 321 321
316 313 313 313 314 314 315 316 318 319 320 319 317 317 321 323 326 327 326 326 328 331 332 333 333 333 333 331 329 327 325 322 316 310 308 308 308 311 313 311 309 310 316 318 318 316 313 313 316 317 318 318 318 319 321 322 323 323 326 327 328 327 325 325 326 327 325 324 325 326 327 329 329 330 329 329 329 329 328 326 324 323 323 323 322
316 314 313 313 314 314 314 317 319 320 320 319 317 317 320 322 325 326 326 326 329 331 333 333 333 333 332 330 328 326 324 321 315 308 307 308 309 312 312 310 309 309 313 316 317 315 312 312 315 317 318 320 321 322 323 324 324 324 326 327 327 327 325 324 326 326 324 324 326 327 327 328 329 330 331 331 331 331 331 330 328 325 324 324 323
317 315 313 314 314 314 315 319 321 321 320 318 316 317 319 321 325 326 326 328 330 332 333 334 334 333 332 330 328 325 323 320 315 308 307 308 309 312 312 309 309 309 311 313 314 314 312 312 316 319 320 322 323 324 325 325 325 326 327 326 326 326 325 324 326 325 325 326 326 327 328 329 329 330 331 332 332 331 331 331 330 329 327 326 325
319 317 315 315 315 316 319 324 324 321 320 318 316 317 318 321 325 326 327 328 330 332 333 334 333 332 330 329 326 323 322 320 315 308 308 308 309 312 311 309 309 309 309 311 312 312 311 311 316 319 320 323 325 325 325 325 326 328 328 328 327 327 326 325 327 325 325 326 326 327 328 329 329 330 331 332 332 332 331 331 331 331 330 329 328
320 320 318 316 316 317 321 327 326 321 319 318 317 316 318 321 326 327 327 329 330 332 333 333 332 331 330 327 323 321 320 319 314 308 308 308 310 312 311 310 310 309 309 309 309 310 310 311 315 319 321 323 325 325 325 325 327 329 329 330 329 328 326 326 327 326 325 323 323 328 329 329 330 330 331 332 332 332 331 331 331 331 331 331 331
322 322 322 319 316 316 319 323 325 322 320 319 317 316 318 322 326 327 328 330 332 333 332 332 331 330 328 324 320 318 319 318 312 308 308 308 310 311 310 310 310 310 309 308 308 308 309 310 314 318 321 323 325 325 325 326 327 329 330 330 330 328 327 326 326 325 324 321 320 327 330 330 331 331 332 332 332 332 331 331 331 331 331 331 332
325 325 326 322 316 316 317 318 320 321 319 318 317 316 318 322 326 327 330 332 333 333 332 331 330 329 325 321 317 315 317 315 311 308 308 309 310 311 310 310 311 310 310 309 309 308 308 310 314 317 320 323 325 326 325 327 328 329 330 330 330 329 327 326 326 326 325 321 320 326 329 330 331 331 332 332 332 332 331 331 331 331 332 332 332
328 329 329 324 318 316 317 316 318 319 317 317 316 317 318 322 326 328 331 333 333 333 332 331 329 325 321 317 314 314 315 313 309 308 308 309 310 310 310 311 311 311 311 310 310 309 308 309 312 316 319 321 323 325 326 327 328 328 329 329 329 329 328 328 328 326 324 323 324 327 328 329 331 331 332 332 332 332 331 332 331 331 332 332 332
330 328 328 325 320 315 315 316 318 317 318 317 315 319 319 322 327 328 332 334 333 333 331 330 327 320 317 315 314 313 313 310 308 308 308 309 309 311 310 311 311 311 311 311 311 310 310 309 311 314 316 318 320 322 324 327 329 329 329 329 329 329 330 329 327 326 326 327 328 329 329 330 331 331 332 332 332 332 332 332 331 332 332 332 332
330 327 326 323 320 316 314 317 319 317 318 317 318 322 322 324 330 331 335 335 333 333 331 329 324 319 318 315 312 312 311 308 308 308 308 309 309 311 311 311 312 312 312 312 312 312 311 311 311 312 313 314 315 318 320 324 327 329 329 329 328 328 329 327 326 327 329 330 331 331 331 331 332 332 332 332 332 332 332 332 331 331 332 332 332
332 331 329 322 318 315 314 317 319 318 317 317 319 322 321 325 331 334 336 335 334 333 330 327 323 322 320 313 311 310 309 308 308 308 308 309 310 311 312 312 313 313 313 313 313 313 312 312 312 312 312 312 313 314 316 319 323 327 328 326 325 325 325 326 328 330 330 330 330 331 331 332 332 333 333 333 333 332 332 331 331 332 332 332 332
337 336 330 322 317 314 314 317 319 318 317 318 319 321 321 323 331 335 336 335 334 332 329 325 324 326 320 312 311 310 310 309 308 308 308 309 310 311 312 313 313 314 314 314 314 314 313 313 314 314 313 313 313 313 313 314 317 320 322 322 324 325 325 328 330 329 329 329 329 330 331 331 331 332 333 333 333 332 332 331 331 332 332 332 332
339 334 328 321 315 313 315 317 318 318 317 317 318 321 322 324 333 337 336 336 334 331 328 324 327 329 321 313 313 314 314 311 309 309 308 308 310 311 313 313 314 314 314 314 315 315 315 315 315 316 316 315 316 315 315 315 315 316 317 319 324 326 327 329 329 328 328 327 328 329 330 331 331 332 333 333 332 332 332 332 331 331 332 332 331
335 333 328 320 314 312 315 317 318 318 318 317 319 322 323 328 335 337 336 336 333 329 325 324 329 330 324 319 321 322 320 318 315 314 311 310 310 311 312 313 314 315 315 315 315 315 315 314 315 315 315 315 315 316 317 318 318 318 319 321 323 324 325 326 326 326 327 327 328 329 330 330 331 331 332 332 332 332 332 332 331 330 331 331 331
335 333 327 319 313 313 315 317 318 318 317 319 323 327 328 332 336 336 336 334 332 328 324 327 331 331 327 325 326 326 324 323 322 321 320 319 319 319 318 318 319 321 321 321 322 321 320 319 319 318 319 319 319 320 322 323 324 325 325 326 327 327 326 327 327 328 328 329 329 330 330 331 331 331 332 332 332 333 332 332 332 332 332 331 332
336 333 327 320 315 313 315 317 318 317 319 324 331 333 333 335 336 335 334 333 330 327 327 332 333 330 328 326 327 327 326 325 326 326 326 327 328 328 327 327 327 328 329 329 329 329 328 328 328 328 328 328 328 328 329 329 329 330 330 330 330 330 330 330 330 330 330 330 331 331 331 331 332 332 332 332 332 333 332 332 331 331 332 331 331
337 336 331 325 318 314 315 317 319 318 322 330 334 335 335 335 336 334 333 332 330 327 331 335 333 331 329 327 328 328 327 327 328 330 330 330 331 331 331 331 331 331 331 331 332 332 332 332 331 331 331 331 330 330 330 330 330 330 330 330 330 330 330 331 331 331 331 331 332 332 332 332 332 332 332 332 331 332 332 331 331 331 331 332 331
338 339 337 332 322 315 314 317 319 319 324 331 334 335 335 335 335 334 332 332 329 327 333 335 333 332 331 329 328 327 328 329 329 331 331 331 331 331 332 331 332 332 332 332 332 333 332 332 331 331 331 330 330 329 329 329 329 329 329 330 330 330 330 331 331 331 331 331 331 331 331 331 331 331 331 330 330 330 330 330 331 331 331 332 331
339 340 339 334 323 315 314 317 320 322 326 331 334 334 334 333 334 333 332 332 328 328 334 335 334 333 331 330 328 326 328 330 331 331 331 332 332 332 332 332 332 332 332 332 332 332 332 331 331 330 330 329 328 327 328 328 329 329 329 329 329 329 330 330 330 330 329 329 329 330 330 331 331 331 331 330 330 330 330 329 330 331 331 331 331
339 340 339 333 324 317 314 316 319 323 325 330 333 333 333 332 334 333 332 332 328 330 334 335 335 334 332 330 328 326 327 329 332 333 332 333 333 333 332 332 333 332 332 332 332 332 331 331 330 329 329 328 327 327 327 328 329 330 329 329 329 330 330 330 330 329 329 329 330 331 331 331 332 332 332 331 331 330 329 329 329 330 330 330 330
339 340 338 332 326 319 316 316 318 322 324 328 333 333 333 333 333 333 333 331 329 332 334 334 335 335 334 333 330 327 325 326 331 334 333 333 333 333 333 332 333 333 332 332 332 331 330 330 329 329 329 328 328 328 327 327 328 329 330 330 330 330 330 329 329 329 329 329 330 331 331 332 332 332 332 331 330 330 329 329 329 329 329 330 330
339 340 338 332 328 324 320 317 316 323 325 327 332 333 332 332 332 332 332 330 330 332 333 334 336 335 334 332 329 327 325 326 331 334 333 333 333 333 334 333 333 332 332 332 331 331 330 330 329 329 329 328 328 328 328 327 328 329 330 329 329 329 329 328 328 328 328 329 330 331 331 331 331 331 331 330 330 330 329 329 329 329 329 329 329
340 341 338 333 330 328 324 320 317 322 327 328 331 332 332 332 332 331 330 330 330 331 334 335 336 334 331 329 328 327 326 327 331 333 333 333 333 333 334 333 332 332 332 332 331 330 330 330 330 329 328 328 328 328 327 328 328 329 329 329 329 329 329 328 328 328 329 330 331 331 331 330 329 330 330 330 330 330 330 329 329 329 329 329 328
342 341 339 334 332 331 328 325 320 320 326 329 329 330 332 332 332 331 330 330 331 333 335 336 335 332 330 330 331 331 330 331 333 334 333 333 333 333 334 333 333 333 333 332 331 331 330 330 329 328 328 328 328 328 328 328 328 329 328 328 328 328 328 328 328 328 329 330 330 330 330 329 329 329 329 330 329 329 329 329 329 329 329 329 329
342 341 340 336 334 333 330 328 325 321 323 327 329 330 331 332 332 331 332 333 333 335 335 334 334 332 331 331 333 334 334 334 334 334 334 333 333 333 334 333 333 333 333 332 332 331 330 330 329 328 328 328 328 328 327 327 328 328 328 328 327 327 328 328 328 329 329 329 329 329 329 329 329 328 328 328 328 327 327 327 328 328 328 328 328
342 341 340 337 335 334 332 330 328 324 321 322 327 329 329 332 332 331 333 335 335 335 334 333 333 332 331 331 332 334 335 334 334 334 333 333 332 333 333 334 334 334 333 332 332 331 331 329 328 328 328 327 327 326 326 326 327 327 328 327 327 327 328 328 329 329 329 329 329 329 329 328 328 328 327 327 326 325 324 323 323 323 324 324 325
342 341 339 337 335 334 333 331 330 328 324 320 324 327 330 332 332 332 334 335 335 335 334 333 333 332 332 332 332 334 334 334 334 333 332 332 332 333 333 334 334 334 333 332 332 331 330 329 328 328 327 326 325 324 324 325 326 327 327 327 327 327 327 328 328 328 328 328 328 327 327 326 326 325 325 324 324 323 321 319 317 317 317 318 320
341 340 339 338 336 335 334 333 332 332 329 324 323 325 330 332 332 333 334 334 334 334 333 333 333 333 333 333 332 334 334 334 333 332 332 332 332 332 333 333 333 333 332 332 331 330 329 328 328 326 325 325 324 323 323 323 324 325 326 326 326 326 328 328 327 328 328 327 326 325 324 323 323 322 321 320 318 317 315 313 310 310 310 311 313
341 340 339 337 336 335 334 334 334 335 333 328 322 324 330 332 333 335 334 334 334 334 333 333 333 333 333 333 333 334 334 333 333 332 331 332 332 332 332 332 332 332 332 331 330 329 328 327 326 324 324 323 323 321 320 320 320 321 322 323 324 326 328 328 328 328 326 324 322 322 322 320 319 316 313 310 308 307 305 304 303 302 303 304 306
341 340 338 336 336 336 335 335 336 336 335 328 322 327 332 333 334 335 334 334 334 333 334 334 334 334 334 333 334 335 334 333 332 332 332 332 332 332 332 332 332 332 331 330 329 328 327 326 324 323 322 322 320 318 317 316 316 316 317 322 325 325 326 327 326 325 321 320 320 320 318 314 310 306 303 301 300 300 300 300 299 299 299 299 300
341 340 339 337 337 337 336 336 337 337 333 327 327 332 334 334 334 334 334 334 334 334 334 334 334 334 334 335 335 335 334 333 333 333 333 333 332 332 332 332 332 331 330 329 328 328 326 325 323 322 321 319 318 316 315 314 314 314 314 322 324 324 327 324 319 318 316 317 318 314 308 303 301 300 299 299 299 299 299 299 299 298 298 298 298
340 340 339 339 338 338 338 337 338 336 330 327 331 335 334 334 334 333 334 334 334 334 334 334 334 334 334 335 335 334 334 334 333 333 333 332 332 332 332 331 331 330 329 328 327 327 325 323 321 320 318 317 315 314 314 313 313 313 313 317 317 321 325 316 313 317 313 312 311 303 300 299 299 299 298 298 298 298 298 298 298 298 298 298 298
341 340 340 339 338 338 339 338 337 334 329 329 333 334 334 334 333 332 333 334 334 334 333 333 333 334 334 334 334 334 334 333 333 332 331 331 331 331 331 330 330 329 328 327 326 324 322 320 318 317 315 314 314 313 312 311 311 311 310 313 316 320 317 307 312 317 308 305 304 298 298 299 298 299 298 298 298 298 298 298 298 298 298 299 298
340 340 339 339 339 339 339 338 336 333 331 332 333 334 333 332 332 332 333 334 334 333 333 332 333 334 334 333 333 333 333 332 332 332 331 331 331 331 330 330 329 328 327 326 324 321 318 317 315 315 314 313 312 311 310 310 309 308 305 306 309 311 308 302 307 311 306 302 299 298 299 298 298 298 298 298 298 298 298 298 298 298 298 298 298
338 338 338 339 340 340 339 338 336 334 333 333 333 333 332 331 332 333 333 333 333 333 333 333 333 334 333 333 333 333 332 332 332 331 331 330 330 330 330 330 328 326 326 324 321 318 316 315 314 313 312 311 310 309 308 307 305 304 302 302 301 301 301 300 300 304 305 303 300 298 298 298 298 298 297 298 298 298 298 298 298 298 298 298 298
336 337 337 338 340 340 339 339 337 335 334 334 334 333 332 332 333 333 333 334 333 333 333 333 333 333 333 332 332 332 332 331 331 330 330 330 330 330 330 329 327 325 323 320 317 316 315 314 312 311 310 309 308 305 304 302 301 301 300 300 300 299 299 299 299 299 300 303 302 298 297 298 298 297 297 298 297 297 298 298 298 298 298 298 298
336 336 337 338 340 340 340 339 337 336 336 335 334 333 333 334 334 334 333 334 334 334 334 334 334 333 332 332 331 331 331 330 330 329 329 329 329 330 328 327 324 322 319 316 315 314 313 312 310 309 307 305 303 302 301 300 300 300 300 299 299 299 298 298 299 299 298 300 300 297 297 299 298 297 297 297 297 297 297 298 298 298 298 298 298
335 336 336 338 339 340 339 338 337 336 335 334 334 333 334 334 334 334 334 334 334 334 334 334 334 332 331 331 331 331 330 329 329 328 329 329 329 328 326 323 320 318 316 314 314 312 311 309 308 306 304 301 300 300 300 300 299 299 299 299 299 298 299 299 299 299 298 298 298 297 297 298 298 298 297 297 297 297 297 298 297 298 298 298 298
335 335 336 338 339 338 338 337 336 334 333 333 333 334 334 334 334 334 334 334 333 333 334 334 333 332 331 331 331 330 329 328 328 328 328 328 327 325 322 319 316 315 314 313 311 310 308 307 305 302 300 300 299 299 299 299 299 299 299 299 299 299 299 299 298 298 298 298 298 298 297 297 298 297 297 297 297 297 297 297 297 297 297 297 297
Wind_Speed
24 23 21 19 18 18 17 17 17 16 16 15 14 13 14 15 16 16 16 16 16 15 14 13 12 12 11 11 10 10 10 10 9 8 7 7 6 5 5 4 5 5 6 8 10 11 12 11 10 11 12 11 9 9 10 10 12 13 14 15 15 15 15 16 16 17 16 16 15 15 15 15 15 15 15 15 14 14 13 13 12 11 11 10 10
27 24 21 20 19 18 18 18 18 17 16 16 15 14 15 16 16 16 16 16 16 15 14 12 12 12 11 10 10 10 10 10 9 8 7 7 7 6 6 7 7 8 10 12 13 14 14 12 11 11 12 12 9 10 10 11 13 14 15 15 15 15 15 16 16 16 16 16 16 16 15 16 17 17 17 16 16 16 16 16 14 13 12 12 11
26 25 22 21 19 19 18 18 18 18 17 16 15 15 15 16 16 16 16 16 15 14 13 12 12 12 11 10 10 10 10 9 8 7 7 7 8 8 8 8 8 9 11 13 14 15 13 12 12 12 13 13 12 12 12 13 14 15 15 15 15 15 15 16 16 16 16 16 16 17 17 18 19 19 19 18 18 18 18 17 16 15 13 13 12
25 25 23 21 20 19 19 19 19 18 17 17 16 15 16 17 17 16 16 15 15 13 12 12 12 12 11 10 10 10 9 8 7 7 7 7 8 8 8 9 10 11 12 13 14 14 13 12 13 14 14 14 14 13 14 14 14 15 15 15 15 15 15 15 16 16 16 16 17 18 19 19 20 20 20 20 20 19 19 19 18 16 15 14 13
25 25 24 22 21 20 20 20 19 19 18 17 16 16 16 16 16 16 16 15 14 13 12 12 12 12 11 10 10 9 9 8 7 6 7 7 8 8 8 10 11 12 13 14 14 13 13 14 15 15 15 15 15 15 15 14 14 15 15 15 15 15 15 15 16 16 16 17 18 19 19 19 19 20 20 21 20 20 20 19 19 18 17 16 15
25 25 24 23 22 21 21 20 19 19 18 18 17 16 17 16 16 16 15 15 14 13 12 12 12 12 11 10 10 9 8 7 6 6 6 6 7 8 8 10 12 12 13 14 14 14 14 15 15 15 15 15 16 16 15 15 15 15 15 15 14 15 15 15 16 16 17 17 18 19 19 19 19 20 20 21 21 21 21 20 20 19 19 18 17
25 24 24 23 22 22 22 21 20 19 19 18 17 17 17 17 16 16 15 14 13 12 12 12 12 12 11 10 10 9 8 7 6 6 5 5 7 9 9 11 12 13 13 14 14 14 14 15 15 14 15 16 17 16 15 15 14 14 14 14 14 14 14 15 15 16 16 17 18 18 18 19 19 19 20 20 21 21 21 21 21 21 20 19 19
25 23 23 23 22 23 22 22 21 20 19 19 18 18 18 17 16 16 15 14 13 13 12 12 12 11 11 10 10 9 8 7 6 5 4 5 6 8 9 10 11 12 13 14 15 15 14 14 14 14 15 16 16 16 15 15 14 14 13 13 13 13 13 13 14 14 15 16 17 17 17 18 18 18 19 19 20 20 21 21 21 21 21 20 20
23 22 22 22 22 22 22 22 21 20 20 19 19 19 18 17 16 16 15 14 13 13 12 12 12 11 11 10 10 9 8 7 6 5 5 6 6 8 8 9 10 12 14 14 15 15 15 14 14 14 16 16 15 15 15 15 14 13 13 12 12 12 12 12 12 13 14 15 15 16 16 17 17 17 18 18 19 19 20 20 21 21 21 21 20
23 22 21 21 22 22 22 22 22 21 20 20 20 19 18 17 16 15 14 14 13 12 12 12 12 11 11 11 10 9 8 7 6 4 5 6 6 7 9 10 11 13 14 14 14 14 14 13 14 15 16 15 15 14 14 14 13 12 12 11 11 11 11 11 11 12 13 14 14 15 15 16 17 17 17 17 18 19 19 20 20 20 20 21 20
22 22 21 21 22 22 22 22 22 21 21 20 20 19 18 17 16 15 14 14 13 12 12 12 12 11 11 11 10 9 8 7 6 4 5 6 6 8 10 11 12 13 14 14 14 14 13 13 15 15 15 15 14 14 13 13 12 12 11 11 10 10 10 10 10 11 11 12 13 14 15 15 16 17 16 17 18 18 19 19 19 20 20 20 20
22 21 21 21 21 21 21 21 22 21 21 21 20 19 18 17 16 15 15 14 13 12 12 12 12 11 11 11 10 8 7 6 5 5 5 5 6 9 11 12 12 13 14 14 14 14 13 13 14 14 14 13 13 12 12 11 11 11 11 10 9 9 9 9 9 9 10 11 12 13 14 15 16 16 16 17 18 18 19 19 19 19 19 19 19
22 21 21 21 20 20 20 21 22 22 22 21 20 20 19 18 16 15 14 14 13 12 12 12 12 12 12 11 9 8 7 6 5 5 5 6 7 10 12 13 13 13 14 14 14 14 13 14 14 14 13 12 12 11 10 9 9 10 10 9 8 8 8 8 8 8 9 10 11 12 13 14 15 15 16 16 17 17 18 18 18 18 18 18 19
20 20 20 20 20 20 20 21 22 22 22 21 21 20 19 18 16 16 14 13 12 12 13 12 12 12 11 10 8 7 6 5 5 5 6 7 8 10 13 13 13 13 14 14 14 13 13 13 13 13 12 11 10 9 7 6 6 8 7 7 7 7 7 7 8 8 8 9 10 11 11 12 13 14 15 15 15 16 17 17 18 18 18 18 18
19 19 19 20 20 21 22 23 23 22 22 21 21 21 20 18 17 15 14 13 12 12 13 13 13 12 11 9 8 6 5 5 5 5 6 7 8 10 13 13 13 13 14 14 14 13 13 13 13 12 11 10 9 7 6 4 4 4 5 6 5 5 6 6 7 7 8 9 9 10 10 11 11 12 13 14 15 15 16 16 17 17 17 17 17
20 20 20 20 21 22 23 23 22 22 22 21 21 21 19 18 16 15 14 13 13 13 13 13 13 12 10 8 7 6 5 5 5 5 6 7 9 11 13 13 13 13 14 14 14 13 13 13 13 12 11 9 8 6 5 3 2 2 3 4 4 5 6 6 6 7 7 8 9 10 9 9 10 11 12 13 14 15 15 15 16 16 17 17 17
21 21 21 21 22 23 23 22 21 21 21 21 21 20 19 18 16 15 14 13 13 14 14 13 12 11 9 8 7 6 6 5 5 5 6 7 9 11 13 13 13 13 13 14 13 13 13 14 13 12 11 9 8 6 5 3 1 0 2 3 4 4 5 6 6 6 7 8 9 9 8 9 9 10 11 12 13 13 14 14 15 16 16 17 17
23 22 21 21 22 23 24 23 21 21 21 21 20 20 20 18 16 15 14 14 14 14 13 12 11 10 9 7 7 7 6 6 6 6 7 8 9 12 13 13 12 12 12 13 13 13 13 13 13 12 11 9 8 7 6 4 3 1 2 3 4 5 6 6 7 7 7 9 9 8 7 7 8 9 10 10 11 12 13 14 15 15 15 15 16
24 22 21 21 23 24 25 25 24 23 23 22 21 20 20 18 17 16 15 14 14 14 13 12 11 9 8 7 7 7 7 6 6 6 7 8 10 12 13 13 12 12 12 11 11 11 12 12 12 11 11 9 8 7 6 5 4 3 3 4 5 7 8 8 8 8 9 11 10 7 6 6 7 8 8 9 10 11 12 14 14 15 14 14 14
24 22 21 22 23 24 24 25 25 25 24 23 22 21 20 19 17 16 15 14 14 13 12 11 10 8 8 7 7 8 8 7 7 7 7 8 10 12 13 13 13 12 11 11 10 10 10 11 11 11 10 10 9 8 8 7 6 5 5 6 7 7 9 9 10 10 11 11 10 8 8 8 8 8 7 8 8 10 12 13 14 14 13 13 13
23 22 22 22 22 23 24 25 26 25 24 24 23 21 20 20 18 16 15 14 14 13 12 11 9 9 8 7 8 9 9 8 8 8 8 9 10 12 13 13 13 12 12 11 10 9 9 9 10 11 10 10 9 9 9 8 7 6 6 7 8 9 9 10 11 11 11 10 9 9 9 8 9 9 9 8 9 10 12 13 14 13 12 13 13
24 23 23 22 21 23 24 25 25 25 25 24 22 20 20 20 18 16 15 15 14 13 12 10 10 9 9 8 9 9 9 9 8 8 9 10 11 12 13 13 13 12 12 11 10 10 9 8 8 9 9 10 10 10 10 9 9 9 8 9 10 11 11 10 10 10 10 10 10 10 9 9 10 11 11 11 11 12 13 14 14 13 13 13 14
25 25 24 23 22 23 25 25 24 25 25 24 22 20 20 20 18 17 16 14 13 13 12 11 11 10 9 9 9 9 9 9 9 9 9 10 11 12 12 12 12 12 12 11 10 10 9 8 8 7 7 7 7 8 9 9 10 10 10 10 10 11 11 10 10 10 10 11 11 10 10 10 11 12 12 13 13 14 14 14 14 13 12 13 14
26 25 24 24 23 24 25 25 24 25 26 24 21 20 20 21 19 17 16 15 14 14 12 12 12 10 9 9 9 9 9 9 9 9 9 9 10 11 11 11 11 11 11 10 9 8 7 7 6 5 4 4 4 5 6 7 9 10 11 10 9 10 10 11 11 11 12 12 12 12 11 11 12 12 12 13 14 15 15 14 14 14 12 13 15
25 25 25 24 24 24 25 24 24 25 25 23 22 20 21 21 18 17 17 16 15 15 13 13 12 10 9 9 10 9 9 9 9 9 9 9 9 9 9 9 8 8 7 7 6 5 5 4 3 3 3 3 4 5 6 7 8 9 10 10 10 11 12 13 14 13 13 12 12 12 12 12 12 12 13 14 15 15 15 14 16 15 13 14 15
26 25 25 24 24 24 24 24 24 24 23 22 22 21 21 20 17 17 16 15 15 15 14 14 13 10 10 10 10 9 9 9 9 9 9 9 9 8 8 7 7 6 6 5 4 3 3 3 3 3 3 3 4 5 6 7 8 9 11 12 13 14 14 15 14 14 13 12 12 12 12 12 12 12 13 14 15 16 15 14 16 16 14 14 15
25 24 24 23 23 23 23 23 23 24 22 22 21 20 20 19 17 16 15 15 16 15 15 15 13 11 11 10 9 9 10 10 9 9 9 9 8 8 8 8 7 6 6 5 3 3 2 2 1 1 2 2 3 5 6 7 8 9 10 11 12 13 13 13 13 13 12 12 12 12 12 12 13 13 14 15 16 16 14 14 16 16 15 15 15
24 24 23 23 22 22 22 22 22 23 22 20 19 17 18 17 16 16 16 16 15 15 16 15 13 12 11 10 8 8 9 9 9 8 8 8 7 7 6 6 6 5 4 4 2 1 1 1 1 2 2 3 4 5 6 7 8 8 9 10 10 11 12 12 12 11 12 12 12 13 13 13 13 14 14 15 16 15 13 14 15 15 14 14 14
23 23 23 23 22 21 22 22 22 23 22 18 17 16 16 16 16 16 16 15 15 16 16 15 13 12 10 9 8 7 7 7 7 7 7 7 6 5 5 4 4 3 2 1 1 0 2 2 2 2 3 3 3 4 5 7 8 8 9 9 10 11 11 12 12 11 11 12 12 13 14 14 14 14 14 15 15 14 13 13 14 14 13 13 13
22 22 23 23 21 20 21 22 22 22 21 17 16 15 14 15 16 16 16 14 15 16 16 14 12 10 9 9 8 8 8 6 7 7 6 6 5 4 4 3 3 2 1 1 1 1 3 3 3 3 4 4 5 6 7 8 9 10 10 10 11 11 12 12 12 12 12 12 13 13 13 14 14 14 14 14 14 13 12 11 11 12 13 13 13
23 23 23 22 21 20 21 23 22 21 20 17 15 15 13 15 16 15 15 14 15 17 15 13 11 9 8 8 7 9 8 7 7 6 6 6 5 4 4 4 3 3 2 2 2 2 3 3 3 4 5 6 7 8 9 10 10 11 11 11 12 11 12 12 13 13 13 13 12 12 12 12 13 13 13 13 12 12 12 11 11 11 12 12 13
23 24 23 22 21 20 21 23 22 20 20 17 14 14 13 14 16 15 15 14 15 16 14 12 10 8 7 7 7 8 8 6 6 5 5 5 4 4 3 3 3 3 2 1 1 2 3 4 5 5 6 8 9 10 11 11 11 11 11 11 11 10 11 11 12 13 13 13 12 11 11 11 11 11 11 12 12 12 13 13 12 12 12 13 13
23 23 23 23 21 20 21 22 22 19 19 18 14 14 13 15 16 15 15 15 15 15 14 12 9 7 6 5 6 7 8 6 5 4 4 4 3 3 2 2 2 2 1 1 2 3 4 5 6 6 8 9 10 10 11 11 11 10 10 10 10 9 9 10 11 12 12 12 11 11 11 10 11 11 12 12 12 13 13 13 13 13 13 12 12
24 24 24 24 22 21 21 22 22 19 18 17 14 14 15 16 16 15 15 15 16 15 13 11 8 7 5 5 5 6 7 6 5 4 3 2 2 1 1 1 1 1 1 2 3 3 4 5 6 7 8 9 9 9 10 10 10 10 9 9 9 9 9 10 10 11 11 11 11 10 10 10 10 11 11 12 12 12 13 12 12 13 13 13 13
24 24 24 24 23 21 21 21 22 19 18 18 16 15 16 16 16 15 16 16 16 14 12 10 8 6 6 5 5 5 6 6 4 3 2 1 0 0 0 0 0 1 2 2 3 3 4 5 6 6 7 9 9 9 9 9 9 9 9 9 9 9 9 10 10 9 9 8 8 8 9 9 9 9 10 10 11 12 12 12 12 12 13 14 15
24 25 24 25 23 22 21 19 21 20 19 19 18 17 17 16 16 15 16 16 15 13 12 10 8 7 6 5 5 4 4 3 3 2 1 1 0 1 1 1 1 2 2 3 3 3 4 4 5 6 7 9 9 9 8 8 9 9 9 9 8 9 9 9 8 7 7 6 7 7 7 7 8 8 9 10 11 12 12 12 13 13 13 15 16
25 25 25 25 24 23 21 19 20 20 20 20 18 17 17 17 16 16 17 16 15 14 12 10 9 8 6 5 4 3 2 2 2 1 1 1 1 1 1 1 2 2 3 3 4 4 4 5 6 7 8 8 8 8 8 8 8 9 9 9 9 9 9 8 7 5 5 6 6 7 7 8 9 9 10 11 12 13 14 14 15 15 15 15 16
25 26 25 25 25 23 22 21 20 20 21 21 19 18 17 18 17 17 17 17 16 14 11 9 9 8 6 5 3 2 1 2 2 1 1 2 2 2 2 2 2 3 4 4 4 4 4 6 7 8 8 8 8 8 7 8 8 9 9 9 9 8 7 6 4 4 4 6 7 8 9 10 11 11 12 13 14 15 16 17 17 17 17 17 17
25 25 26 25 26 25 23 22 20 20 20 20 20 19 19 19 18 18 18 17 15 13 11 9 9 8 6 5 3 2 2 2 2 2 2 2 2 2 2 3 3 4 5 5 5 5 6 6 7 8 9 9 9 9 8 8 8 8 8 8 8 7 6 4 3 4 5 7 8 9 11 12 13 14 15 16 17 18 19 20 20 20 20 19 19
25 25 25 26 26 25 23 22 20 19 19 19 20 21 21 20 19 19 18 16 14 12 11 10 10 9 7 5 3 3 3 3 3 2 2 2 1 1 2 3 4 4 5 5 6 6 7 7 7 8 9 10 10 9 9 8 6 6 6 7 7 6 5 4 4 5 6 8 10 11 12 13 14 15 17 19 20 20 21 22 21 20 20 19 18
25 25 24 26 26 25 24 22 20 19 19 20 21 22 23 21 20 19 17 14 13 13 12 11 10 9 7 6 5 5 4 3 3 2 2 1 1 1 2 3 3 4 5 6 6 7 7 7 8 9 9 10 10 10 9 8 5 4 4 5 5 5 5 5 5 6 9 11 12 12 13 14 15 17 18 19 20 20 20 20 20 19 19 18 17
25 25 24 25 25 24 23 22 20 20 20 21 22 22 22 20 18 17 15 14 14 14 14 12 10 9 8 8 8 6 5 4 3 3 2 1 1 1 1 2 3 4 6 7 7 7 7 8 9 10 10 10 11 11 11 9 6 5 3 2 3 4 5 6 6 9 11 12 12 13 14 15 16 17 17 18 18 18 17 18 18 18 19 18 18
24 24 24 24 24 23 23 22 20 20 20 21 21 21 20 17 15 15 16 16 15 14 14 13 11 10 8 8 7 6 5 4 4 3 3 2 1 1 1 2 4 5 7 8 8 8 9 9 10 10 10 11 12 11 10 9 8 7 4 2 4 2 3 3 8 10 10 10 11 12 14 15 15 15 15 15 16 17 17 18 18 19 19 20 20
25 24 23 23 24 23 22 21 20 19 20 20 22 21 18 17 16 15 16 16 14 14 14 13 11 9 7 7 6 5 5 5 4 4 3 2 2 2 1 3 5 7 8 8 8 9 9 10 9 9 9 10 9 9 8 8 8 7 5 1 1 4 3 3 7 7 9 10 9 12 14 15 15 15 16 17 18 18 19 19 20 21 21 21 22
26 25 22 22 22 20 19 21 20 20 20 21 23 21 18 18 17 16 17 17 14 14 13 11 10 9 7 6 6 7 6 5 4 4 3 3 3 2 2 4 6 8 8 8 8 9 9 9 8 8 7 7 7 7 8 8 8 8 7 5 4 4 2 5 5 3 8 9 10 15 16 16 16 17 18 18 19 18 19 20 20 21 22 22 22
26 25 22 21 20 17 19 22 22 21 22 23 23 21 19 18 17 16 17 17 15 13 11 9 10 9 6 6 7 7 6 4 4 4 3 3 2 2 5 6 8 8 8 7 7 8 8 7 7 7 6 7 7 8 8 8 9 8 8 8 7 5 5 8 7 4 5 7 11 16 17 18 18 18 18 17 17 18 18 19 19 20 21 21 22
26 25 22 22 21 18 19 21 22 23 23 22 22 20 18 17 17 16 16 15 14 12 10 9 10 9 7 7 7 7 5 4 3 2 2 2 3 5 7 8 9 8 6 5 6 6 7 6 7 7 7 8 8 8 8 9 9 9 10 11 10 10 10 11 9 7 6 6 12 18 19 19 19 18 18 17 18 19 19 20 20 20 21 22 22
25 25 23 23 22 20 20 20 22 23 22 21 20 19 17 17 17 15 14 14 11 10 11 10 11 10 8 8 8 6 6 4 2 1 3 5 6 8 9 9 8 6 4 5 5 6 6 7 7 7 8 8 8 8 8 9 9 10 12 13 12 13 12 12 12 13 13 9 12 21 22 21 22 21 20 19 21 22 22 22 22 23 23 23 24
24 25 23 22 22 21 21 20 20 20 19 19 19 17 17 17 16 15 14 14 12 11 12 12 12 11 10 9 7 6 5 3 1 3 5 7 9 11 11 9 6 3 4 5 6 6 7 7 7 7 8 7 7 8 8 9 10 12 14 14 13 13 12 14 16 17 18 15 15 22 24 23 23 23 22 22 24 24 23 24 24 25 25 26 26
23 22 22 22 22 22 21 19 19 19 18 19 18 18 18 17 14 14 15 15 13 13 14 14 13 12 10 8 8 6 4 2 2 5 6 9 12 12 10 5 2 4 5 6 6 6 7 7 7 7 7 7 9 10 10 11 13 13 14 13 12 12 12 16 18 19 20 19 19 21 22 22 21 21 22 22 24 26 26 26 27 27 27 27 27
20 20 21 22 22 21 20 20 20 18 17 19 19 18 17 15 14 13 13 12 11 12 14 14 13 11 9 9 8 6 3 2 3 6 8 11 12 9 5 1 4 5 5 6 6 7 7 7 7 7 7 9 11 11 12 13 13 13 13 13 14 15 16 18 20 21 21 21 21 21 21 22 21 21 21 21 23 26 28 29 30 30 30 29 28
Wind_Direction
173 173 172 173 165 162 166 170 172 167 159 154 153 155 155 154 149 140 137 135 136 135 135 134 132 133 131 129 128 127 123 120 116 109 98 85 76 67 69 89 109 123 133 138 141 140 136 138 146 155 156 149 138 132 131 125 118 115 115 109 105 103 101 98 96 94 89 84 78 74 69 69 68 66 62 59 57 55 55 54 54 50 45 44 44
169 170 172 173 168 164 166 173 172 166 160 155 155 156 156 156 151 144 141 140 140 138 137 135 135 134 132 130 126 123 119 117 112 102 90 79 69 63 76 96 108 116 121 123 129 134 134 132 132 142 153 158 149 137 137 128 120 117 114 107 103 102 100 97 93 89 84 80 77 74 70 68 66 64 61 58 57 55 53 52 50 47 42 41 41
168 167 172 174 169 168 169 175 173 166 161 157 157 157 159 158 154 149 145 144 143 141 139 136 137 134 131 128 122 119 116 114 106 95 84 75 64 63 83 98 106 113 120 126 131 135 134 126 125 133 143 151 147 139 136 126 121 117 111 107 105 103 100 96 91 86 83 79 76 75 71 67 64 61 60 58 57 55 53 52 51 49 45 43 40
171 167 171 174 171 171 173 176 173 168 163 160 159 159 161 160 157 153 149 148 147 144 141 139 138 135 131 126 122 118 115 112 101 89 82 77 64 64 88 101 104 107 117 128 134 132 127 121 121 126 132 138 139 137 130 123 121 116 110 108 107 104 100 95 89 86 82 78 75 72 68 65 62 59 57 55 54 53 52 52 52 51 49 46 43
174 168 172 175 173 174 176 176 174 170 165 163 161 162 164 162 159 155 153 151 150 147 144 143 141 137 133 128 125 121 117 111 98 88 81 82 69 67 96 109 107 109 115 125 130 126 121 121 121 123 127 132 134 131 126 123 121 116 112 109 107 103 99 94 89 84 80 78 75 70 65 61 59 57 55 53 51 50 49 50 50 50 49 46 44
174 171 174 175 174 176 178 176 174 172 167 165 164 165 166 164 161 157 155 153 152 150 148 147 145 141 136 132 128 124 118 111 101 89 80 85 78 75 103 117 115 115 118 124 127 125 122 123 123 124 128 131 130 126 124 122 120 118 115 111 108 103 98 93 87 82 79 77 73 69 65 59 55 53 52 50 48 47 45 45 46 46 45 43 41
175 174 176 176 175 177 179 175 175 174 169 167 166 168 169 166 163 159 157 156 156 153 152 151 149 144 138 134 129 126 120 115 105 92 83 79 79 82 107 123 122 124 125 126 127 126 125 124 125 127 129 130 128 125 125 124 122 119 116 113 110 104 98 93 86 81 78 74 70 67 64 59 54 50 48 47 45 43 42 41 41 41 41 39 38
177 177 178 177 177 179 179 176 176 175 170 170 170 171 171 169 164 161 159 158 159 156 156 154 152 147 141 137 132 129 124 119 107 96 86 78 84 88 110 125 126 131 132 131 131 131 129 128 128 129 131 131 128 128 129 128 125 121 118 115 110 104 100 93 86 81 77 72 68 64 61 58 53 50 46 45 43 40 39 38 38 37 37 36 36
178 179 181 178 180 181 179 177 176 175 173 173 173 174 173 170 167 164 162 161 160 160 159 157 155 150 144 139 135 131 125 119 110 99 87 92 96 93 111 128 130 134 134 134 134 134 133 132 132 133 133 131 130 131 132 131 128 124 119 116 110 104 98 90 82 77 74 69 65 61 57 55 52 48 44 43 41 39 36 35 35 33 33 32 33
177 180 182 181 184 182 180 179 177 176 175 176 176 177 175 171 169 166 164 162 162 162 160 159 157 152 146 140 135 131 125 120 112 100 97 105 104 104 119 130 136 138 137 137 137 136 135 136 136 137 135 133 134 135 135 134 130 124 119 114 107 101 94 86 76 69 68 65 61 58 54 54 51 46 43 42 40 37 35 32 32 31 30 29 29
179 181 181 184 187 184 182 181 180 179 177 178 178 179 177 173 171 169 167 165 164 164 163 161 156 151 144 139 135 131 126 121 117 108 109 114 109 121 133 136 140 144 142 141 140 140 139 139 139 138 137 137 137 137 138 136 131 121 115 108 99 93 86 78 71 65 64 60 56 55 52 50 48 43 40 40 39 37 34 32 30 28 27 27 26
180 181 182 186 188 186 185 184 183 181 180 180 179 180 178 175 173 171 170 167 166 166 164 161 155 150 144 139 135 131 129 125 123 118 113 118 122 132 140 141 144 147 147 145 144 143 142 142 143 143 142 140 138 137 137 135 129 118 110 102 92 85 78 69 64 61 58 54 51 50 48 46 44 40 38 38 37 35 33 31 29 27 25 25 25
179 181 185 187 189 188 188 188 187 184 182 182 180 182 181 178 176 174 172 168 167 168 165 161 154 150 145 140 137 134 133 129 122 117 115 119 129 138 142 143 145 150 152 150 148 148 146 148 149 148 146 142 139 138 137 134 127 118 111 100 92 81 69 62 54 51 49 47 44 43 43 42 41 37 34 34 33 31 30 29 28 27 25 24 23
180 182 186 188 191 189 190 191 189 188 185 183 182 184 184 180 178 177 172 168 168 168 165 160 155 151 147 144 141 141 137 130 116 111 113 116 127 140 144 144 146 151 155 155 154 153 152 153 153 151 149 145 143 142 138 132 119 112 104 89 84 75 62 56 45 41 43 40 36 35 36 36 37 35 31 28 27 27 26 27 27 26 25 23 21
183 186 189 192 192 189 191 191 190 190 187 185 184 185 186 182 181 176 169 168 168 168 165 161 158 154 151 150 146 146 140 129 117 115 115 116 127 140 144 144 147 152 156 159 160 160 158 158 159 157 156 153 151 148 141 124 95 81 74 63 58 49 45 46 37 36 36 29 26 25 27 28 29 31 29 25 23 23 24 25 25 24 22 20 18
186 190 193 195 194 190 188 189 191 192 189 188 187 187 186 183 181 174 169 169 170 169 167 165 162 158 156 155 151 148 143 134 125 123 119 121 130 140 145 144 148 153 157 160 164 166 165 165 165 165 164 162 161 157 149 131 94 55 43 38 28 17 16 22 23 24 24 20 16 16 20 20 20 24 25 22 18 19 20 20 21 20 17 15 14
190 193 196 198 196 190 187 186 191 193 191 189 189 187 185 185 181 173 171 171 172 171 169 168 163 162 161 158 156 153 148 141 135 128 121 125 134 142 146 145 147 151 157 160 164 168 170 170 171 171 171 172 172 170 166 157 147 41 4 3 359 353 353 356 1 4 7 7 5 10 14 12 11 15 17 16 13 13 13 13 12 12 11 10 9
193 197 200 201 197 192 189 189 191 192 192 190 189 187 186 185 179 173 173 174 173 172 170 168 165 164 164 165 163 154 148 141 137 128 122 128 137 144 145 145 146 149 154 158 163 169 173 175 176 177 178 181 183 185 185 185 193 228 295 320 327 329 333 337 342 345 346 347 349 358 5 2 3 6 7 8 7 6 5 3 3 3 5 5 4
197 199 202 205 201 196 194 193 193 193 192 190 188 187 187 183 178 176 176 177 175 172 170 167 166 166 168 170 161 149 144 142 136 129 126 129 138 145 146 145 145 145 147 151 158 166 174 179 182 183 185 190 195 199 202 206 213 229 257 282 298 309 318 324 329 330 331 333 335 336 339 345 352 357 360 1 0 358 356 355 355 356 358 359 358
199 200 205 209 204 202 200 196 195 194 192 191 189 187 187 181 178 179 179 180 175 172 170 168 166 166 170 165 152 144 141 141 136 131 130 131 138 146 146 145 144 142 140 141 146 156 169 179 187 192 195 200 206 212 215 221 228 236 253 269 279 293 306 313 318 320 324 326 327 325 324 329 338 345 349 352 352 349 348 348 348 349 351 351 349
201 202 207 211 208 207 204 200 198 195 192 191 189 187 184 179 178 180 181 182 176 172 171 169 166 164 165 156 146 143 142 141 137 134 132 132 139 145 147 145 143 142 138 135 135 141 155 171 186 197 204 210 216 222 227 231 238 245 254 266 274 283 293 303 310 314 319 322 324 322 321 325 330 336 338 341 341 341 343 344 343 342 341 339 337
200 203 208 212 212 210 205 202 198 193 191 190 189 185 181 178 177 180 182 181 176 175 174 170 167 163 157 150 145 144 141 138 135 135 134 134 139 145 147 145 143 142 140 138 138 141 149 161 177 192 205 215 224 231 236 239 243 250 258 268 276 282 286 296 305 309 314 317 320 320 322 325 328 331 332 332 333 335 337 339 339 335 332 330 328
201 205 209 211 214 212 206 202 197 192 190 189 189 184 179 178 178 180 183 180 178 178 175 170 167 161 153 147 145 142 136 133 133 134 135 136 141 145 147 145 144 144 146 147 148 152 157 164 171 181 196 209 223 233 240 243 246 250 258 269 278 283 286 293 301 304 308 311 314 315 320 324 326 327 327 327 329 330 330 333 333 326 324 324 324
202 207 210 211 213 212 206 201 196 191 190 189 188 183 181 182 181 183 183 179 181 180 173 170 166 158 150 144 142 136 131 131 131 129 133 137 143 148 150 150 149 150 152 154 156 161 165 171 175 183 196 209 224 236 242 246 248 251 256 265 276 284 287 291 295 300 305 310 312 311 314 317 320 321 322 322 323 325 325 329 328 317 316 321 321
203 207 210 211 212 211 205 200 195 191 191 189 186 185 186 185 183 185 184 180 181 177 172 171 165 157 149 141 138 132 129 130 128 125 126 130 137 145 150 151 150 150 151 154 157 162 167 173 180 198 217 231 243 248 249 252 255 257 260 266 276 284 287 289 292 296 302 310 312 308 307 308 312 315 317 317 317 323 324 326 324 316 314 319 319
202 207 210 210 212 211 206 200 195 192 191 188 187 189 189 187 187 188 185 181 180 176 173 170 164 158 150 142 138 134 132 131 127 124 121 120 123 127 132 132 130 128 129 133 139 148 160 175 187 208 228 245 255 260 259 261 264 267 271 276 282 285 288 290 292 297 302 310 313 309 306 305 308 310 310 312 315 320 321 320 320 318 317 318 318
202 206 209 209 211 210 206 201 197 193 189 188 190 191 190 190 190 189 186 183 182 177 172 169 165 159 155 151 144 141 139 135 129 124 120 117 115 117 118 117 116 113 112 113 115 129 147 166 198 233 255 269 273 274 274 274 276 278 282 286 291 294 297 298 298 301 304 308 309 308 309 307 307 307 306 309 313 314 315 316 317 318 319 318 315
202 204 207 209 211 209 205 202 198 193 189 189 190 191 192 192 192 191 188 186 183 177 172 169 165 158 158 161 155 152 149 144 137 131 126 122 119 118 117 118 117 114 113 111 106 115 163 218 293 305 299 295 290 290 291 293 295 297 299 302 306 311 313 314 314 312 309 306 304 305 306 306 303 302 303 307 309 310 314 317 317 318 320 318 316
202 205 208 210 210 207 204 203 199 193 191 190 190 193 195 192 191 192 189 187 184 177 174 171 166 162 160 162 163 167 166 158 150 143 137 132 131 128 127 130 129 130 125 121 138 281 296 303 314 316 317 320 323 325 327 326 327 328 327 326 324 325 326 327 328 325 319 313 310 309 308 305 302 301 303 306 307 311 317 319 321 323 324 323 319
204 206 210 211 210 205 201 202 199 195 193 190 191 195 196 193 191 192 189 188 184 178 177 175 170 167 163 164 169 176 175 170 161 153 147 142 142 142 144 149 154 173 183 236 265 307 312 315 325 330 337 344 350 350 349 346 343 340 339 337 334 334 334 333 333 331 327 323 320 316 312 309 308 308 309 310 312 316 320 322 327 329 329 329 327
206 207 211 211 208 204 201 201 200 197 193 190 193 196 198 196 192 193 190 189 187 181 181 180 174 168 163 162 169 175 173 165 162 159 158 155 151 151 155 162 174 196 202 240 278 334 337 337 340 344 353 355 359 359 357 353 346 342 340 338 337 337 336 335 334 332 330 328 325 322 318 316 314 314 314 315 317 321 325 327 331 333 332 334 335
210 209 212 211 207 204 202 203 202 200 196 191 193 195 196 196 193 192 191 190 188 183 183 182 177 170 163 160 163 172 172 163 159 161 168 165 158 157 161 164 171 185 189 219 320 8 355 348 349 352 358 0 1 360 357 351 344 340 335 334 335 335 335 334 333 333 332 329 326 322 321 320 317 317 318 319 321 322 324 325 327 329 330 333 337
211 210 212 210 206 204 204 205 205 203 199 194 195 195 194 195 194 194 191 190 188 186 187 184 180 177 174 173 172 177 178 171 162 160 166 167 164 162 158 166 163 158 143 51 25 19 3 354 355 357 359 358 356 355 351 345 339 334 332 333 335 336 336 335 333 330 326 322 318 317 318 319 320 320 321 321 321 319 320 321 321 321 323 328 331
211 211 212 209 207 205 205 206 206 204 199 196 197 195 195 196 196 195 191 189 190 190 191 189 184 181 185 195 194 191 186 180 171 159 159 165 168 157 153 180 143 95 61 33 25 18 3 355 357 355 353 351 348 346 344 342 337 332 332 334 333 335 337 335 333 325 318 313 312 314 316 318 320 320 319 319 318 317 318 319 318 316 317 319 319
211 212 213 210 209 208 207 206 207 206 199 198 200 197 197 197 195 193 190 190 191 193 195 194 186 181 189 195 190 184 179 177 174 164 165 177 144 130 198 247 351 15 25 24 17 9 353 348 351 348 344 343 341 341 342 342 338 333 333 333 333 337 338 337 333 323 315 312 311 313 316 320 321 321 320 320 320 320 322 322 319 316 314 312 313
211 213 215 213 211 210 209 208 208 208 202 202 204 200 198 196 193 189 188 191 192 195 199 194 185 185 185 175 159 152 157 163 172 180 196 214 304 219 242 298 327 344 355 359 353 345 338 339 343 342 338 336 339 342 345 344 340 337 334 333 336 339 340 339 334 326 321 319 321 325 329 333 335 333 330 328 328 328 329 328 325 321 318 315 313
211 214 216 216 215 212 211 210 211 209 205 204 203 200 199 196 192 188 189 193 196 199 199 191 187 188 179 164 149 136 148 171 192 207 232 268 268 237 245 290 323 332 329 328 330 329 331 338 339 338 335 334 338 341 343 344 341 337 333 334 339 341 342 338 333 333 331 332 338 342 343 344 344 340 335 334 333 332 331 329 327 323 319 315 313
212 215 217 219 217 214 212 212 213 212 210 207 202 200 199 196 192 190 193 198 201 200 196 192 194 191 184 179 171 164 183 210 242 254 256 267 265 253 251 274 306 313 308 313 320 324 328 333 335 333 332 332 333 336 340 345 342 335 331 332 336 337 335 331 330 333 333 340 345 346 344 339 336 333 330 329 328 329 328 326 324 321 317 314 311
214 216 217 220 219 216 213 214 214 215 216 209 201 199 198 195 193 194 198 201 202 200 197 198 199 197 199 197 191 210 218 220 246 265 264 260 259 257 257 273 295 299 302 313 318 320 325 330 333 331 330 331 333 338 345 349 341 330 324 324 325 320 315 310 312 323 334 345 347 343 338 330 328 327 324 323 323 325 324 323 322 319 316 314 310
215 216 217 219 220 217 215 215 214 216 220 212 202 200 196 194 194 197 202 204 204 204 205 203 203 208 212 208 205 221 226 220 236 253 251 249 257 271 271 280 293 300 307 315 316 319 324 328 333 331 331 334 337 343 345 345 336 322 314 309 303 294 285 283 295 319 334 340 340 335 331 330 330 328 327 326 325 325 323 321 320 318 315 313 310
214 216 216 219 220 218 217 215 213 217 221 216 208 201 194 193 197 202 206 209 211 213 212 209 211 217 217 211 206 211 215 214 223 224 221 230 267 283 283 291 299 308 310 313 318 322 327 331 334 333 334 336 337 340 339 341 341 323 306 294 284 276 271 272 287 318 332 335 338 335 332 336 337 336 335 333 331 329 328 325 324 324 321 318 315
216 217 216 217 219 218 216 215 214 217 219 217 211 200 194 196 201 206 209 213 216 218 220 220 219 223 222 209 198 196 201 201 205 202 192 195 214 255 289 307 310 311 313 319 324 327 331 335 337 337 337 337 338 341 342 348 355 348 332 250 236 263 272 279 302 319 333 343 345 341 339 341 342 343 342 340 339 340 339 337 335 335 333 332 331
218 219 216 216 218 217 215 214 214 217 218 213 202 193 193 200 206 210 215 219 222 225 224 222 223 229 225 207 191 186 191 192 187 179 173 187 201 238 289 310 312 314 319 323 324 327 333 338 340 340 340 341 341 343 349 359 4 7 23 178 201 201 211 309 329 327 345 357 346 344 347 351 354 355 355 353 353 353 352 350 348 347 345 344 344
220 221 219 216 214 213 214 215 214 215 214 204 194 193 197 205 211 215 222 225 230 236 230 224 228 229 213 196 187 174 174 175 169 167 176 196 205 219 274 311 316 318 319 320 324 332 340 343 346 347 345 345 344 349 1 9 12 19 30 37 92 109 135 356 350 346 360 3 353 357 2 5 8 7 4 4 4 3 0 359 357 355 354 352 350
221 223 221 218 212 211 216 217 214 210 206 199 194 196 202 207 209 211 218 221 229 236 231 238 245 231 211 196 178 165 168 174 177 181 190 194 196 220 308 319 316 316 316 322 334 343 349 351 353 354 354 353 357 9 14 17 24 30 34 43 60 80 49 11 38 32 1 8 12 7 10 16 17 13 11 9 9 8 5 3 360 358 357 355 354
221 222 220 221 220 217 217 216 211 205 203 200 199 202 206 209 207 208 214 216 221 227 227 242 242 228 226 207 178 173 179 186 191 193 196 205 229 304 324 317 310 311 317 333 348 355 357 359 1 2 6 9 14 21 20 22 31 34 38 52 60 60 38 31 53 64 14 30 28 15 16 25 26 20 19 19 18 16 13 11 7 3 2 360 359
217 219 217 222 225 221 218 216 209 205 205 205 207 211 212 213 211 212 220 221 222 223 221 227 221 218 232 216 192 185 181 183 195 204 234 271 303 319 318 311 307 312 327 352 6 10 10 10 10 13 20 22 25 28 25 27 33 36 41 50 53 54 52 44 50 57 47 42 26 21 23 31 36 32 28 29 28 24 22 19 15 12 9 6 4
213 215 216 221 224 220 221 218 210 208 209 210 216 219 218 218 213 212 223 228 227 224 215 207 207 217 229 215 201 192 184 188 199 279 312 314 321 323 317 309 309 321 355 22 28 26 21 19 18 25 29 29 34 35 35 38 40 42 46 49 49 51 52 49 52 52 50 49 25 22 24 27 33 36 34 32 31 29 26 23 20 18 16 13 11
212 215 215 219 221 220 220 217 213 209 208 214 220 222 222 221 215 216 225 223 217 217 211 203 207 221 227 217 209 204 201 210 264 320 319 323 323 319 313 307 314 1 40 45 42 32 28 29 30 37 38 38 45 47 49 52 52 53 52 52 51 52 52 48 49 46 45 48 34 24 25 24 24 28 31 30 29 29 28 25 23 21 19 18 15
213 214 212 215 219 219 217 215 213 209 209 218 222 221 223 222 220 228 231 218 205 205 205 203 211 221 227 224 220 217 217 236 304 313 315 317 316 312 309 310 3 54 60 53 45 37 36 40 41 45 48 51 58 61 63 63 63 63 62 63 61 58 54 47 46 43 40 41 35 27 26 27 26 24 25 26 26 25 24 24 23 22 21 18 16
210 209 209 212 214 215 214 213 214 213 214 221 222 222 226 229 231 234 228 216 210 207 206 208 214 221 226 224 221 221 229 260 294 308 312 312 312 311 312 9 71 73 68 56 50 47 47 48 47 51 57 61 66 67 70 72 72 73 70 68 63 57 53 48 44 41 39 37 34 30 25 25 28 26 23 24 25 23 21 21 19 19 20 17 14